When you browse on this site, cookies collect data to enhance your experience and personalize the content and advertising you see.
Visit our Privacy Policy to learn more. By continuing to use the site, you agree to this use of cookies and data.
  • In Spain
  • List of Countries
  • For 7 days
  • Water Temperature
  • Satellite Maps
  • Weather Map
  • Weather Widgets
  • user-avatar
    Login

    Hourly Weather Neuquén

    Today, 20 January, Sunday

    Time Temperature Precipitation Wind Pressure Humidity
    00:00 +31°C° 0 mm 9 mps 729 mmHg 30%
    01:00 +29°C° 0 mm 9 mps 729 mmHg 32%
    02:00 +28°C° 0 mm 7 mps 729 mmHg 33%
    03:00 +27°C° 0 mm 5 mps 729 mmHg 34%
    04:00 +27°C° 0 mm 3 mps 729 mmHg 35%
    05:00 +28°C° 0 mm 3 mps 729 mmHg 31%
    06:00 +29°C° 0 mm 4 mps 729 mmHg 27%
    07:00 +30°C° 0 mm 4 mps 729 mmHg 24%
    08:00 +33°C° 0 mm 4 mps 729 mmHg 21%
    09:00 +34°C° 0 mm 5 mps 729 mmHg 18%
    10:00 +36°C° 0 mm 5 mps 729 mmHg 15%
    11:00 +38°C° 0 mm 6 mps 728 mmHg 14%
    12:00 +39°C° 0 mm 6 mps 728 mmHg 12%
    13:00 +40°C° 0 mm 7 mps 727 mmHg 10%
    14:00 +40°C° 0 mm 8 mps 727 mmHg 9%
    15:00 +42°C° 0 mm 10 mps 727 mmHg 8%
    16:00 +42°C° 0 mm 11 mps 727 mmHg 7%
    17:00 +39°C° 0 mm 11 mps 727 mmHg 8%
    18:00 +37°C° 0 mm 12 mps 728 mmHg 10%
    19:00 +33°C° 0 mm 12 mps 728 mmHg 12%
    20:00 +32°C° 0 mm 12 mps 729 mmHg 15%
    21:00 +29°C° 0 mm 11 mps 730 mmHg 18%
    22:00 +27°C° 0 mm 11 mps 731 mmHg 22%
    23:00 +26°C° 0 mm 10 mps 731 mmHg 23%

    Tomorrow, 21 January, Monday

    Time Temperature Precipitation Wind Pressure Humidity
    00:00 +24°C° 0 mm 10 mps 731 mmHg 24%
    01:00 +23°C° 0 mm 9 mps 731 mmHg 26%
    02:00 +22°C° 0 mm 9 mps 731 mmHg 29%
    03:00 +22°C° 0 mm 9 mps 731 mmHg 32%
    04:00 +21°C° 0 mm 9 mps 731 mmHg 35%
    05:00 +21°C° 0 mm 9 mps 732 mmHg 33%
    06:00 +22°C° 0 mm 9 mps 732 mmHg 30%
    07:00 +23°C° 0 mm 9 mps 733 mmHg 28%
    08:00 +26°C° 0 mm 8 mps 732 mmHg 23%
    09:00 +27°C° 0 mm 7 mps 732 mmHg 18%
    10:00 +29°C° 0 mm 6 mps 732 mmHg 13%
    11:00 +32°C° 0 mm 6 mps 731 mmHg 11%
    12:00 +33°C° 0 mm 6 mps 731 mmHg 10%
    13:00 +35°C° 0 mm 5 mps 730 mmHg 8%
    14:00 +36°C° 0 mm 6 mps 729 mmHg 8%
    15:00 +38°C° 0 mm 6 mps 729 mmHg 7%
    16:00 +39°C° 0 mm 6 mps 728 mmHg 7%
    17:00 +38°C° 0 mm 7 mps 728 mmHg 6%
    18:00 +36°C° 0 mm 7 mps 728 mmHg 6%
    19:00 +35°C° 0 mm 8 mps 728 mmHg 6%
    20:00 +33°C° 0 mm 8 mps 728 mmHg 9%
    21:00 +31°C° 0 mm 8 mps 729 mmHg 11%
    22:00 +28°C° 0 mm 8 mps 729 mmHg 14%
    23:00 +27°C° 0 mm 8 mps 729 mmHg 16%

    Day after tomorrow, 22 January, Tuesday

    Time Temperature Precipitation Wind Pressure Humidity
    00:00 +24°C° 0 mm 8 mps 729 mmHg 18%
    01:00 +23°C° 0 mm 8 mps 729 mmHg 20%
    02:00 +22°C° 0 mm 9 mps 729 mmHg 20%
    03:00 +22°C° 0 mm 9 mps 729 mmHg 20%
    04:00 +21°C° 0 mm 9 mps 729 mmHg 20%
    05:00 +22°C° 0 mm 10 mps 730 mmHg 19%
    06:00 +22°C° 0 mm 11 mps 730 mmHg 18%
    07:00 +23°C° 0 mm 12 mps 731 mmHg 17%
    08:00 +24°C° 0 mm 11 mps 731 mmHg 18%
    09:00 +27°C° 0 mm 11 mps 731 mmHg 20%
    10:00 +28°C° 0 mm 10 mps 731 mmHg 21%
    11:00 +29°C° 0 mm 10 mps 731 mmHg 19%
    12:00 +31°C° 0 mm 10 mps 731 mmHg 17%
    13:00 +32°C° 0 mm 10 mps 731 mmHg 16%
    14:00 +33°C° 0 mm 10 mps 730 mmHg 15%
    15:00 +33°C° 0 mm 10 mps 730 mmHg 14%
    16:00 +34°C° 0 mm 10 mps 730 mmHg 13%
    17:00 +33°C° 0 mm 8 mps 730 mmHg 13%
    18:00 +32°C° 0 mm 7 mps 730 mmHg 13%
    19:00 +30°C° 0 mm 6 mps 731 mmHg 13%
    20:00 +29°C° 0 mm 6 mps 731 mmHg 13%
    21:00 +28°C° 0 mm 6 mps 732 mmHg 13%
    22:00 +27°C° 0 mm 5 mps 733 mmHg 13%
    23:00 +26°C° 0 mm 5 mps 733 mmHg 15%

    23 January, Wednesday

    Time Temperature Precipitation Wind Pressure Humidity
    00:00 +24°C° 0 mm 6 mps 733 mmHg 16%
    01:00 +23°C° 0 mm 6 mps 733 mmHg 18%
    02:00 +22°C° 0 mm 5 mps 733 mmHg 20%
    03:00 +21°C° 0 mm 5 mps 733 mmHg 22%
    04:00 +21°C° 0 mm 4 mps 733 mmHg 24%
    05:00 +21°C° 0 mm 4 mps 734 mmHg 27%
    06:00 +22°C° 0 mm 4 mps 734 mmHg 29%
    07:00 +23°C° 0 mm 5 mps 735 mmHg 32%
    08:00 +26°C° 0 mm 4 mps 734 mmHg 28%
    09:00 +27°C° 0 mm 3 mps 734 mmHg 23%
    10:00 +29°C° 0 mm 2 mps 734 mmHg 19%
    11:00 +30°C° 0 mm 2 mps 733 mmHg 17%
    12:00 +32°C° 0 mm 2 mps 733 mmHg 14%
    13:00 +34°C° 0 mm 3 mps 732 mmHg 12%
    14:00 +35°C° 0 mm 3 mps 731 mmHg 11%
    15:00 +36°C° 0 mm 4 mps 730 mmHg 9%
    16:00 +37°C° 0 mm 4 mps 729 mmHg 8%
    17:00 +36°C° 0 mm 3 mps 729 mmHg 9%
    18:00 +36°C° 0 mm 3 mps 729 mmHg 9%
    19:00 +35°C° 0 mm 2 mps 729 mmHg 9%
    20:00 +35°C° 0 mm 3 mps 728 mmHg 12%
    21:00 +34°C° 0 mm 3 mps 728 mmHg 15%
    22:00 +34°C° 0 mm 4 mps 728 mmHg 18%
    23:00 +33°C° 0 mm 5 mps 728 mmHg 28%

    24 January, Thursday

    Time Temperature Precipitation Wind Pressure Humidity
    00:00 +33°C° 0 mm 6 mps 727 mmHg 38%
    01:00 +33°C° 0 mm 7 mps 727 mmHg 49%
    02:00 +32°C° 0.1 mm 6 mps 727 mmHg 46%
    03:00 +30°C° 0.1 mm 5 mps 726 mmHg 44%
    04:00 +29°C° 0.1 mm 4 mps 726 mmHg 42%
    05:00 +30°C° 0 mm 4 mps 726 mmHg 33%
    06:00 +30°C° 0 mm 5 mps 727 mmHg 25%
    07:00 +32°C° 0 mm 5 mps 727 mmHg 17%
    08:00 +33°C° 0 mm 5 mps 727 mmHg 15%
    09:00 +35°C° 0 mm 5 mps 727 mmHg 12%
    10:00 +36°C° 0 mm 5 mps 727 mmHg 10%
    11:00 +38°C° 0 mm 6 mps 727 mmHg 8%
    12:00 +40°C° 0 mm 7 mps 726 mmHg 7%
    13:00 +41°C° 0 mm 8 mps 726 mmHg 5%
    14:00 +42°C° 0 mm 10 mps 726 mmHg 5%
    15:00 +42°C° 0 mm 12 mps 726 mmHg 5%
    16:00 +41°C° 0 mm 14 mps 726 mmHg 5%
    17:00 +38°C° 0 mm 14 mps 727 mmHg 7%
    18:00 +36°C° 0 mm 14 mps 727 mmHg 10%
    19:00 +32°C° 0 mm 13 mps 728 mmHg 13%
    20:00 +29°C° 0 mm 14 mps 729 mmHg 19%
    21:00 +27°C° 0 mm 14 mps 729 mmHg 24%
    22:00 +24°C° 0 mm 14 mps 730 mmHg 30%
    23:00 +23°C° 0 mm 13 mps 730 mmHg 31%

    25 January, Friday

    Time Temperature Precipitation Wind Pressure Humidity
    00:00 +23°C° 0 mm 13 mps 730 mmHg 32%
    01:00 +22°C° 0 mm 13 mps 730 mmHg 33%
    02:00 +21°C° 0 mm 12 mps 730 mmHg 32%
    03:00 +19°C° 0 mm 11 mps 731 mmHg 32%
    04:00 +18°C° 0 mm 10 mps 732 mmHg 32%
    05:00 +19°C° 0 mm 9 mps 732 mmHg 29%
    06:00 +20°C° 0 mm 8 mps 733 mmHg 25%
    07:00 +20°C° 0 mm 7 mps 734 mmHg 22%
    08:00 +22°C° 0 mm 7 mps 734 mmHg 19%
    09:00 +23°C° 0 mm 6 mps 735 mmHg 17%
    10:00 +26°C° 0 mm 5 mps 735 mmHg 14%
    11:00 +27°C° 0 mm 5 mps 734 mmHg 13%
    12:00 +29°C° 0 mm 5 mps 734 mmHg 11%
    13:00 +30°C° 0 mm 5 mps 734 mmHg 10%
    14:00 +32°C° 0 mm 4 mps 733 mmHg 10%
    15:00 +31°C° 0 mm 3 mps 733 mmHg 10%
    16:00 +33°C° 0 mm 3 mps 732 mmHg 9%
    17:00 +31°C° 0 mm 3 mps 732 mmHg 10%
    18:00 +30°C° 0 mm 2 mps 733 mmHg 11%
    19:00 +30°C° 0 mm 2 mps 733 mmHg 12%
    20:00 +29°C° 0 mm 3 mps 733 mmHg 12%
    21:00 +28°C° 0 mm 4 mps 734 mmHg 12%
    22:00 +28°C° 0 mm 4 mps 734 mmHg 11%
    23:00 +27°C° 0 mm 5 mps 734 mmHg 12%
    Show more